Time,TemperatureF,DewpointF,PressureIn,WindDirection,WindDirectionDegrees,WindSpeedMPH,WindSpeedGustMPH,Humidity,HourlyPrecipIn,Conditions,Clouds,dailyrainin,SoftwareType,DateUTC
2013-10-19 00:06:00,55.5,47.0,29.97,SSW,198,4.0,11.0,72,0.00,,,0.00,weatherlink.com 1.10,2013-10-19 04:06:00,
2013-10-19 00:21:00,55.4,47.0,29.97,West,269,7.0,11.0,73,0.00,,,0.00,weatherlink.com 1.10,2013-10-19 04:21:00,
2013-10-19 00:36:00,56.2,47.0,29.98,West,277,7.0,11.0,72,0.00,,,0.00,weatherlink.com 1.10,2013-10-19 04:36:00,
2013-10-19 00:51:00,57.2,47.0,29.98,WNW,290,9.0,13.0,70,0.00,,,0.00,weatherlink.com 1.10,2013-10-19 04:51:00,
2013-10-19 01:07:00,57.2,47.0,29.99,WNW,282,9.0,13.0,69,0.00,,,0.00,weatherlink.com 1.10,2013-10-19 05:07:00,
2013-10-19 01:22:00,56.8,48.0,29.99,West,279,5.0,10.0,72,0.00,,,0.00,weatherlink.com 1.10,2013-10-19 05:22:00,
2013-10-19 01:37:00,56.6,48.0,29.99,West,275,8.0,11.0,72,0.00,,,0.00,weatherlink.com 1.10,2013-10-19 05:37:00,
2013-10-19 01:52:00,55.9,47.0,30.00,West,267,9.0,12.0,71,0.00,,,0.00,weatherlink.com 1.10,2013-10-19 05:52:00,
2013-10-19 02:07:00,55.4,47.0,30.00,West,271,5.0,9.0,74,0.00,,,0.00,weatherlink.com 1.10,2013-10-19 06:07:00,
2013-10-19 02:22:00,53.8,47.0,29.99,West,267,8.0,9.0,77,0.00,,,0.00,weatherlink.com 1.10,2013-10-19 06:22:00,
2013-10-19 02:37:00,52.9,47.0,29.99,West,280,5.0,7.0,80,0.00,,,0.00,weatherlink.com 1.10,2013-10-19 06:37:00,
2013-10-19 02:52:00,52.8,47.0,29.99,WSW,242,3.0,7.0,81,0.00,,,0.00,weatherlink.com 1.10,2013-10-19 06:52:00,
2013-10-19 03:07:00,52.9,47.0,30.00,West,270,6.0,9.0,79,0.00,,,0.00,weatherlink.com 1.10,2013-10-19 07:07:00,
2013-10-19 03:22:00,53.3,46.0,30.00,West,273,6.0,10.0,77,0.00,,,0.00,weatherlink.com 1.10,2013-10-19 07:22:00,
2013-10-19 03:37:00,54.5,47.0,30.00,West,278,5.0,10.0,75,0.00,,,0.00,weatherlink.com 1.10,2013-10-19 07:37:00,
2013-10-19 03:52:00,54.4,47.0,30.00,WSW,246,5.0,9.0,75,0.00,,,0.00,weatherlink.com 1.10,2013-10-19 07:52:00,
2013-10-19 04:07:00,54.7,47.0,29.99,West,273,7.0,11.0,75,0.00,,,0.00,weatherlink.com 1.10,2013-10-19 08:07:00,
2013-10-19 04:22:00,55.5,47.0,30.00,WSW,254,7.0,11.0,74,0.00,,,0.00,weatherlink.com 1.10,2013-10-19 08:22:00,
2013-10-19 04:37:00,55.5,47.0,30.00,West,275,7.0,9.0,74,0.00,,,0.00,weatherlink.com 1.10,2013-10-19 08:37:00,
2013-10-19 04:52:00,54.0,47.0,30.01,NNW,327,4.0,8.0,77,0.00,,,0.00,weatherlink.com 1.10,2013-10-19 08:52:00,
2013-10-19 05:07:00,52.4,46.0,30.01,NNW,327,2.0,5.0,80,0.00,,,0.00,weatherlink.com 1.10,2013-10-19 09:07:00,
2013-10-19 05:22:00,51.3,46.0,30.01,West,275,4.0,5.0,82,0.00,,,0.00,weatherlink.com 1.10,2013-10-19 09:22:00,
2013-10-19 05:37:00,50.6,45.0,30.00,WSW,250,2.0,4.0,82,0.00,,,0.00,weatherlink.com 1.10,2013-10-19 09:37:00,
2013-10-19 05:52:00,50.1,45.0,30.01,WNW,284,3.0,6.0,82,0.00,,,0.00,weatherlink.com 1.10,2013-10-19 09:52:00,
2013-10-19 06:07:00,49.8,45.0,30.01,WNW,284,2.0,5.0,83,0.00,,,0.00,weatherlink.com 1.10,2013-10-19 10:07:00,
2013-10-19 06:22:00,49.9,45.0,30.00,NNE,13,3.0,4.0,84,0.00,,,0.00,weatherlink.com 1.10,2013-10-19 10:22:00,
2013-10-19 06:37:00,49.9,46.0,30.00,NNE,13,2.0,4.0,86,0.00,,,0.00,weatherlink.com 1.10,2013-10-19 10:37:00,
2013-10-19 06:52:00,49.5,46.0,30.00,NNE,13,1.0,3.0,86,0.00,,,0.00,weatherlink.com 1.10,2013-10-19 10:52:00,
2013-10-19 07:07:00,49.3,45.0,29.99,NNE,13,2.0,3.0,86,0.00,,,0.00,weatherlink.com 1.10,2013-10-19 11:07:00,
2013-10-19 07:22:00,49.2,46.0,29.99,NNE,13,0.0,2.0,87,0.00,,,0.00,weatherlink.com 1.10,2013-10-19 11:22:00,
2013-10-19 07:37:00,49.7,45.0,30.00,NNE,13,0.0,0.0,85,0.00,,,0.00,weatherlink.com 1.10,2013-10-19 11:37:00,
2013-10-19 07:52:00,50.6,46.0,30.01,NNE,13,0.0,0.0,84,0.00,,,0.00,weatherlink.com 1.10,2013-10-19 11:52:00,
2013-10-19 08:07:00,51.4,47.0,30.02,NNE,13,1.0,2.0,84,0.00,,,0.00,weatherlink.com 1.10,2013-10-19 12:07:00,
2013-10-19 08:22:00,52.1,47.0,30.02,NNE,13,2.0,3.0,83,0.00,,,0.00,weatherlink.com 1.10,2013-10-19 12:22:00,
2013-10-19 08:37:00,52.1,47.0,30.02,NNE,13,2.0,3.0,83,0.00,,,0.00,weatherlink.com 1.10,2013-10-19 12:37:00,
2013-10-19 08:52:00,52.5,48.0,30.02,NNE,13,4.0,5.0,85,0.00,,,0.00,weatherlink.com 1.10,2013-10-19 12:52:00,
2013-10-19 09:07:00,53.1,49.0,30.02,NNE,32,2.0,4.0,87,0.00,,,0.00,weatherlink.com 1.10,2013-10-19 13:07:00,
2013-10-19 09:22:00,53.3,50.0,30.02,NE,39,2.0,4.0,88,0.00,,,0.00,weatherlink.com 1.10,2013-10-19 13:22:00,
2013-10-19 09:37:00,54.0,51.0,30.02,NE,38,2.0,4.0,89,0.00,,,0.00,weatherlink.com 1.10,2013-10-19 13:37:00,
2013-10-19 09:52:00,54.8,52.0,30.02,NE,38,0.0,3.0,89,0.00,,,0.00,weatherlink.com 1.10,2013-10-19 13:52:00,
2013-10-19 10:07:00,55.7,52.0,30.02,NE,38,0.0,0.0,88,0.00,,,0.00,weatherlink.com 1.10,2013-10-19 14:07:00,
2013-10-19 10:22:00,57.5,54.0,30.01,ESE,111,3.0,3.0,87,0.00,,,0.00,weatherlink.com 1.10,2013-10-19 14:22:00,
2013-10-19 10:38:00,59.3,54.0,30.01,ESE,111,1.0,3.0,82,0.00,,,0.00,weatherlink.com 1.10,2013-10-19 14:38:00,
2013-10-19 10:53:00,60.9,54.0,30.01,ESE,123,3.0,3.0,79,0.00,,,0.00,weatherlink.com 1.10,2013-10-19 14:53:00,
2013-10-19 11:08:00,61.2,53.0,30.00,South,182,7.0,9.0,74,0.00,,,0.00,weatherlink.com 1.10,2013-10-19 15:08:00,
2013-10-19 11:23:00,61.5,52.0,30.00,SSW,194,11.0,11.0,70,0.00,,,0.00,weatherlink.com 1.10,2013-10-19 15:23:00,
2013-10-19 11:38:00,62.1,52.0,30.00,South,172,5.0,10.0,69,0.00,,,0.00,weatherlink.com 1.10,2013-10-19 15:38:00,
2013-10-19 11:53:00,61.9,50.0,30.00,South,186,4.0,11.0,65,0.00,,,0.00,weatherlink.com 1.10,2013-10-19 15:53:00,
2013-10-19 12:08:00,63.6,51.0,29.99,SSW,192,8.0,10.0,63,0.00,,,0.00,weatherlink.com 1.10,2013-10-19 16:08:00,
2013-10-19 12:23:00,63.7,51.0,29.98,South,180,10.0,13.0,64,0.00,,,0.00,weatherlink.com 1.10,2013-10-19 16:23:00,
2013-10-19 12:38:00,62.7,52.0,29.98,SSE,165,9.0,15.0,67,0.00,,,0.00,weatherlink.com 1.10,2013-10-19 16:38:00,
2013-10-19 12:53:00,64.6,52.0,29.97,SSW,199,9.0,15.0,64,0.00,,,0.00,weatherlink.com 1.10,2013-10-19 16:53:00,
2013-10-19 13:08:00,65.4,51.0,29.96,South,182,14.0,15.0,60,0.00,,,0.00,weatherlink.com 1.10,2013-10-19 17:08:00,
2013-10-19 13:23:00,65.4,51.0,29.95,South,180,13.0,15.0,61,0.00,,,0.00,weatherlink.com 1.10,2013-10-19 17:23:00,
2013-10-19 13:38:00,65.0,51.0,29.95,SW,228,10.0,15.0,61,0.00,,,0.00,weatherlink.com 1.10,2013-10-19 17:38:00,
2013-10-19 13:53:00,66.3,51.0,29.95,South,175,9.0,15.0,59,0.00,,,0.00,weatherlink.com 1.10,2013-10-19 17:53:00,
2013-10-19 14:08:00,66.1,50.0,29.94,WSW,238,7.0,14.0,57,0.00,,,0.00,weatherlink.com 1.10,2013-10-19 18:08:00,
2013-10-19 14:23:00,65.2,47.0,29.93,SSW,207,8.0,13.0,53,0.00,,,0.00,weatherlink.com 1.10,2013-10-19 18:23:00,
2013-10-19 14:38:00,65.0,47.0,29.93,SSE,162,9.0,12.0,52,0.00,,,0.00,weatherlink.com 1.10,2013-10-19 18:38:00,
2013-10-19 14:53:00,64.3,47.0,29.93,SW,231,9.0,13.0,54,0.00,,,0.00,weatherlink.com 1.10,2013-10-19 18:53:00,
2013-10-19 15:08:00,64.0,47.0,29.93,SSW,207,3.0,10.0,54,0.00,,,0.00,weatherlink.com 1.10,2013-10-19 19:08:00,
2013-10-19 15:23:00,63.0,47.0,29.92,South,172,5.0,9.0,57,0.00,,,0.00,weatherlink.com 1.10,2013-10-19 19:23:00,
2013-10-19 15:38:00,62.5,48.0,29.93,South,184,7.0,9.0,59,0.00,,,0.00,weatherlink.com 1.10,2013-10-19 19:38:00,
2013-10-19 15:53:00,62.3,48.0,29.91,SE,142,6.0,10.0,61,0.00,,,0.00,weatherlink.com 1.10,2013-10-19 19:53:00,
2013-10-19 16:08:00,62.1,49.0,29.89,ESE,107,7.0,12.0,62,0.00,,,0.00,weatherlink.com 1.10,2013-10-19 20:08:00,
2013-10-19 16:23:00,61.7,50.0,29.89,SSE,148,5.0,9.0,65,0.00,,,0.00,weatherlink.com 1.10,2013-10-19 20:23:00,
2013-10-19 16:38:00,61.6,49.0,29.91,SE,134,4.0,8.0,63,0.00,,,0.00,weatherlink.com 1.10,2013-10-19 20:38:00,
2013-10-19 16:53:00,61.4,49.0,29.89,SE,132,5.0,8.0,64,0.00,,,0.00,weatherlink.com 1.10,2013-10-19 20:53:00,
2013-10-19 17:08:00,60.8,49.0,29.87,East,94,2.0,8.0,66,0.00,,,0.00,weatherlink.com 1.10,2013-10-19 21:08:00,
2013-10-19 17:23:00,60.2,48.0,29.87,ESE,113,5.0,7.0,65,0.00,,,0.00,weatherlink.com 1.10,2013-10-19 21:23:00,
2013-10-19 17:38:00,59.8,49.0,29.86,East,87,6.0,11.0,67,0.00,,,0.00,weatherlink.com 1.10,2013-10-19 21:38:00,
2013-10-19 17:53:00,59.6,49.0,29.86,ESE,107,8.0,8.0,69,0.00,,,0.00,weatherlink.com 1.10,2013-10-19 21:53:00,
2013-10-19 18:08:00,59.6,50.0,29.85,ENE,65,1.0,10.0,70,0.00,,,0.00,weatherlink.com 1.10,2013-10-19 22:08:00,
2013-10-19 18:23:00,59.7,50.0,29.84,East,88,7.0,9.0,71,0.00,,,0.00,weatherlink.com 1.10,2013-10-19 22:23:00,
2013-10-19 18:38:00,59.7,51.0,29.84,ENE,71,8.0,12.0,72,0.00,,,0.00,weatherlink.com 1.10,2013-10-19 22:38:00,
2013-10-19 18:53:00,59.9,50.0,29.86,SE,127,5.0,15.0,70,0.00,,,0.00,weatherlink.com 1.10,2013-10-19 22:53:00,
2013-10-19 19:08:00,60.1,51.0,29.86,East,85,7.0,13.0,71,0.00,,,0.00,weatherlink.com 1.10,2013-10-19 23:08:00,
2013-10-19 19:23:00,60.1,51.0,29.85,ENE,76,5.0,12.0,71,0.00,,,0.00,weatherlink.com 1.10,2013-10-19 23:23:00,
2013-10-19 19:38:00,60.0,51.0,29.84,SE,141,7.0,14.0,72,0.00,,,0.00,weatherlink.com 1.10,2013-10-19 23:38:00,
2013-10-19 19:53:00,60.3,51.0,29.83,ESE,105,9.0,14.0,72,0.00,,,0.00,weatherlink.com 1.10,2013-10-19 23:53:00,
2013-10-19 20:08:00,60.4,52.0,29.84,SE,127,10.0,16.0,73,0.00,,,0.00,weatherlink.com 1.10,2013-10-20 00:08:00,
2013-10-19 20:23:00,60.5,53.0,29.84,East,92,7.0,11.0,77,0.00,,,0.00,weatherlink.com 1.10,2013-10-20 00:23:00,
2013-10-19 20:38:00,60.6,54.0,29.83,SE,127,5.0,10.0,80,0.00,,,0.00,weatherlink.com 1.10,2013-10-20 00:38:00,
2013-10-19 20:53:00,60.7,55.0,29.83,SSE,153,8.0,12.0,81,0.00,,,0.00,weatherlink.com 1.10,2013-10-20 00:53:00,
2013-10-19 21:09:00,60.9,55.0,29.83,SSW,198,5.0,10.0,81,0.00,,,0.00,weatherlink.com 1.10,2013-10-20 01:09:00,
2013-10-19 21:24:00,60.6,55.0,29.82,SSW,210,6.0,8.0,83,0.01,,,0.01,weatherlink.com 1.10,2013-10-20 01:24:00,
2013-10-19 21:39:00,60.0,55.0,29.81,SSW,209,5.0,11.0,84,0.01,,,0.01,weatherlink.com 1.10,2013-10-20 01:39:00,
2013-10-19 21:54:00,59.9,55.0,29.81,SSW,212,8.0,13.0,85,0.01,,,0.01,weatherlink.com 1.10,2013-10-20 01:54:00,
2013-10-19 22:09:00,59.7,55.0,29.82,SW,225,12.0,12.0,85,0.01,,,0.01,weatherlink.com 1.10,2013-10-20 02:09:00,
2013-10-19 22:24:00,59.5,55.0,29.81,SSW,203,9.0,12.0,84,0.00,,,0.01,weatherlink.com 1.10,2013-10-20 02:24:00,
2013-10-19 22:39:00,59.4,54.0,29.81,SW,236,12.0,14.0,83,0.00,,,0.01,weatherlink.com 1.10,2013-10-20 02:39:00,
2013-10-19 22:54:00,59.4,55.0,29.80,SW,227,6.0,14.0,84,0.00,,,0.01,weatherlink.com 1.10,2013-10-20 02:54:00,
2013-10-19 23:09:00,59.5,55.0,29.80,SW,227,10.0,14.0,84,0.00,,,0.01,weatherlink.com 1.10,2013-10-20 03:09:00,
2013-10-19 23:24:00,59.5,55.0,29.80,WSW,244,9.0,13.0,84,0.00,,,0.01,weatherlink.com 1.10,2013-10-20 03:24:00,
2013-10-19 23:39:00,59.5,55.0,29.79,WSW,243,8.0,14.0,84,0.00,,,0.01,weatherlink.com 1.10,2013-10-20 03:39:00,
2013-10-19 23:54:00,59.5,55.0,29.78,SW,221,13.0,13.0,85,0.00,,,0.01,weatherlink.com 1.10,2013-10-20 03:54:00,